Location: Audruicq
(50.8780°N, 2.0797°E)
Time: 00:15:55
(UTC+00:00)

Daily predictions for brighter satellites

Satellite Brightness Start Highest point End
(mag) Time Altitude Azimuth Time Altitude Azimuth Time Altitude Azimuth
COSMOS 2406 4.4 03:52:20 36° SE 03:52:20 36° SE 03:55:34 10° SE
Cosmos 2082 Rocket 2.9 03:52:50 51° ENE 03:52:50 51° ENE 03:57:45 10° SE
COSMOS 2455 3.8 03:57:05 39° SSE 03:57:05 39° SSE 04:00:44 10° SSE
Cosmos 1844 Rocket 4.4 04:07:43 21° N 04:07:43 21° N 04:09:46 10° NNE
Cosmos 2278 Rocket 2.5 04:13:39 53° SSE 04:14:39 62° ESE 04:20:16 10° NE
USA 215 3.2 04:11:18 10° SE 04:17:47 66° SW 04:17:51 66° SW
BREEZE M DEB (TANK) 3.9 04:21:18 52° SE 04:21:18 52° SE 04:24:02 10° E
CZ-2C R/B 3.5 04:16:23 10° SE 04:21:41 49° ENE 04:26:50 10° N
Cosmos 1072 Rocket 4.3 04:18:58 30° N 04:22:16 88° E 04:28:24 10° S
Cosmos 540 Rocket 3.6 04:25:25 69° SE 04:25:25 69° SE 04:29:56 10° SSE
Cosmos 1833 Rocket 4.1 04:34:00 25° SSW 04:34:00 25° SSW 04:36:25 10° S
SL-8 R/B 4.3 04:35:05 46° SSE 04:35:15 47° SSE 04:39:50 10° E
Cosmos 841 Rocket 3.3 04:48:37 64° NW 04:49:22 79° WSW 04:54:31 10° SSE
CZ-4C R/B 4.1 04:48:26 10° SE 04:51:25 38° ENE 04:51:33 37° ENE
SJ-12 4.2 04:52:56 10° NNE 04:57:04 66° ESE 05:01:10 10° S
Envisat 3.3 04:52:51 10° NNE 04:57:57 67° ESE 05:03:00 10° S
H-2A R/B 4.0 04:54:25 10° ESE 04:58:00 27° ENE 05:01:39 10° N
SL-19 R/B 4.2 04:55:31 10° S 05:01:06 60° WSW 05:03:26 34° NW
Cosmos 1570 Rocket 4.0 05:01:27 25° NNW 05:04:33 79° ENE 05:09:48 10° SSE
YAOGAN 6 2.5 05:02:31 10° NNE 05:06:14 88° ESE 05:09:55 10° SSW
Cosmos 1076 Rocket 3.4 05:03:39 10° S 05:08:02 89° WNW 05:12:26 10° N
COSMO-SKYMED 1 2.5 05:08:42 10° S 05:13:01 66° WSW 05:14:38 37° NNW
Cosmos 1867 3.6 05:10:51 31° NW 05:13:35 81° NE 05:19:04 10° SE
Cosmos 1464 Rocket 4.2 05:10:34 10° NNW 05:16:32 44° W 05:22:24 10° SSW
APEX 2.8 05:16:52 61° E 05:16:52 61° E 05:19:27 10° SE
Cosmos 921 Rocket 4.1 05:13:08 13° N 05:16:47 44° ENE 05:21:00 10° SE
H-2A R/B 2.5 05:15:32 10° N 05:19:13 73° WNW 05:22:54 10° SSW
NOSS 3-2 (A) 4.0 05:13:57 10° SSW 05:19:25 56° SE 05:25:45 10° NE
Geosat FO 4.2 05:17:36 10° SSE 05:20:57 74° WSW 05:21:18 65° WNW
Cosmos 1151 Rocket 4.0 05:20:56 10° N 05:25:12 48° ENE 05:29:27 10° SSE
CENTAUR R/B 3.4 05:20:28 10° SSW 05:26:10 52° ESE 05:33:01 10° NE
Cosmos 2208 Rocket 4.0 05:24:24 16° NNW 05:28:49 83° WSW 05:34:14 10° SSE
Gbstr 26 Del rocket 3.2 05:28:19 38° WSW 05:29:16 48° SSW 05:33:21 10° SE
CZ-4B R/B 4.3 05:25:57 10° NNE 05:29:21 35° E 05:32:39 10° SSE
Cosmos 1814 Rocket 4.0 05:28:34 24° NW 05:31:33 57° WSW 05:36:33 10° S
Meteor 2-3 Rocket 3.7 05:26:30 10° S 05:32:08 89° ESE 05:37:54 10° NNE
Cosmos 2227 Rocket 4.5 05:31:33 10° N 05:33:22 11° NNE 05:35:13 10° NE
Landsat 5 3.8 05:29:08 10° S 05:33:32 53° W 05:36:50 17° NNW
Cosmos 2082 Rocket 2.9 05:34:44 28° W 05:36:05 31° WSW 05:40:56 10° SSW
Meteor 1-26 Rocket 4.3 05:31:23 10° NNW 05:37:25 73° W 05:43:17 10° S
COSMOS 2455 4.3 05:40:17 18° WSW 05:40:17 18° WSW 05:43:38 10° SW
Meteor PRIRODA 4.4 05:36:39 10° NNE 05:40:13 53° E 05:43:45 10° S
Cosmos 1850 Rocket 4.3 05:36:05 10° SW 05:41:13 47° WNW 05:46:25 10° NNE
CZ-4B R/B 3.2 05:39:23 10° SE 05:42:23 31° ENE 05:45:23 10° N
Cosmos 2297 4.0 05:36:53 10° SSW 05:42:36 72° ESE 05:48:20 10° NNE
Kosmos-917 3.8 05:43:21 21° SW 05:45:11 74° NW 05:50:42 10° NE
USA 238 DEB 4.2 05:44:46 10° SSW 05:51:08 62° SE 05:57:55 10° NE
USA 238 4.2 05:44:52 10° SSW 05:51:15 61° SE 05:58:01 10° NE
Cosmos 1782 2.9 05:48:34 12° NNW 05:52:09 51° W 05:55:59 10° S
NOAA 11 4.2 05:48:57 10° NNE 05:54:26 90° WNW 05:59:55 10° SSW
CZ-2C R/B 3.1 05:51:23 10° NNE 05:56:10 75° ESE 06:01:03 10° S
Cosmos 1862 4.0 05:53:50 10° S 05:57:42 55° E 06:01:35 10° NNE
Cosmos 2278 Rocket 3.0 05:55:34 17° W 05:59:08 31° NW 06:04:12 10° NNE
CZ-2C R/B 3.4 05:57:16 10° SSW 06:02:10 31° W 06:07:00 10° NNW
Cosmos 1943 Rocket 2.2 05:56:58 10° SSW 06:02:39 85° WNW 06:08:22 10° NNE
Cosmos 1933 4.3 06:03:35 17° NW 06:05:41 26° W 06:09:00 10° SW
Okean 3 Rocket 4.0 06:01:31 10° S 06:06:01 68° E 06:10:32 10° NNE
Cosmos 2344 3.6 06:01:34 10° WSW 06:08:55 67° NW 06:17:06 10° NE
IRAS Rocket 4.5 06:03:48 10° S 06:09:09 49° W 06:14:29 10° NNW
SJ-7 4.5 06:05:47 10° N 06:09:59 62° WNW 06:14:08 10° SSW
ADEOS 3.6 06:04:55 10° N 06:10:04 61° WNW 06:15:12 10° SSW
Meteor 1-31 Rocket 3.6 06:08:23 10° N 06:11:44 29° WNW 06:15:05 10° SW
Iridium 2 3.9 06:13:37 10° SSW 06:17:17 47° W 06:20:59 10° N
SL-8 R/B 3.9 06:13:04 12° W 06:17:31 67° S 06:22:15 10° E
Cosmos 2279 Rocket 4.0 06:13:11 10° NNW 06:19:20 65° W 06:25:25 10° S
Meteor 2-8 Rocket 4.4 06:14:04 10° NNW 06:20:15 79° W 06:26:23 10° S
Cosmos 2151 3.9 06:16:44 10° SW 06:20:26 28° WNW 06:24:09 10° N
DNEPR-1 R/B 3.9 06:17:44 11° NW 06:22:13 82° NE 06:27:37 10° SE
Tsikada Rocket 4.4 06:17:38 10° SW 06:23:21 38° WNW 06:29:09 10° N
Cosmos 1812 3.2 06:20:46 10° NNW 06:24:21 37° W 06:27:55 10° SSW
Cosmos 1634 Rocket 4.5 06:20:18 10° NNW 06:26:06 39° W 06:31:49 10° SSW
Cosmos 1939 Rocket 2.8 06:27:38 10° N 06:31:38 69° WNW 06:35:33 10° SSW
Nadezhda 4 Rocket 4.4 06:27:23 10° S 06:33:29 70° E 06:39:40 10° NNE
H-2A R/B 2.6 06:29:54 10° SSW 06:33:49 38° W 06:37:52 10° NNW
Cosmos 773 Rocket 4.4 06:29:27 10° NNW 06:34:43 65° ENE 06:39:53 10° SE
SMAP 3.0 06:30:33 10° NNE 06:35:14 83° WNW 06:39:54 10° SSW
Genesis I 3.8 06:31:59 10° NW 06:35:54 45° WSW 06:39:48 10° SSE
FALCON 9 DEB 4.2 06:33:16 10° SW 06:36:01 38° SSE 06:38:45 10° E
Cosmos 2228 Rocket 4.5 06:32:00 10° N 06:36:13 40° ENE 06:40:27 10° SE
Envisat 4.1 06:32:39 10° N 06:36:32 23° WNW 06:40:25 10° WSW
Meteor 1-27 Rocket 3.9 06:31:10 10° N 06:36:46 80° ENE 06:42:26 10° SSE
CZ-2D R/B 3.6 06:34:20 10° NNE 06:38:09 70° ESE 06:41:55 10° S
Cosmos 1766 Rocket 3.7 06:35:12 10° SSW 06:39:27 53° WNW 06:43:44 10° N
Cosmos 2098 Rocket 3.3 06:36:21 10° SW 06:39:39 37° WNW 06:43:42 10° N
PSLV R/B 3.9 06:37:55 10° NNE 06:41:46 82° ESE 06:45:41 10° SSW
Cosmos 2297 Rocket 3.9 06:40:31 10° NNW 06:45:06 24° NE 06:49:40 10° E
Lacrosse 4 Rocket 3.9 06:47:19 10° N 06:48:32 11° NNE 06:49:44 10° NE
